Starlink 32258

operational
NORAD ID: 60939 Int'l Des: 2024-155 Owner: SPXS Country: US Constellation: starlink
LEOCIRCULAR

Starlink 32258について

説明を読み込み中...

リアルタイム位置

3D地球を読み込み中...

次回通過

高度履歴

Altitude vs Time

uPlot chart will show altitude changes over time

軌道要素

1 60939U 24155R 25259.31893460 -.00000784 00000-0 -14348-4 0 9996
2 60939 53.1596 219.6210 0001172 77.3610 282.7522 15.30189888 59591
Epoch: Sep 16, 2025 • Age: 25 hours

現在のステータス

高度 475.0 km
速度 7.63 km/s
衛星直下点 12.87°N, 95.93°E
打ち上げ日 Aug 31, 2024
運用期間 1 years
タイプ internet

技術仕様

分類 Payload
質量 730.00 kg
乾燥質量 700.00 kg
総質量 730.00 kg
長さ 0.30 m
直径 4.10 m
スパン 29.00 m
形状 Box + pan
製造者 SPXS
バスタイプ Starlink V2M
フェーズステータス In Orbit
所有者/国 SPXS/US

大規模コンステレーション

Loading constellations...